Tracking 28790 objects as of 18-Apr-2024
HD Live streaming from Space Station
objects crossing your sky now

BREEZE-M DEB

Track BREEZE-M DEB now!
10-day predictions


NORAD ID: 35542
Int'l Code: 2006-006CK
Perigee: 747.7 km
Apogee: 14,879.1 km
Inclination: 51.6 °
Period: 280.2 minutes
Semi major axis: 14184 km
RCS: 0.0126 m2 (small)
Launch date: February 28, 2006
Source: Commonwealth of Independent States (former USSR) (CIS)
Launch site: TYURATAM MISSILE AND SPACE COMPLEX (TTMTR)

Note: This is SATELLITE DEBRIS
Your satellite tracking list
Your tracking list is empty




NASA's NSSDC Master Catalog

Two Line Element Set (TLE):
1 35542U 06006CK  24105.98742286  .00001478  00000-0  12795-1 0  9994
2 35542  51.5900 345.2750 4981306  94.2983   4.2832  5.13909540298434
Source of the keplerian elements: AFSPC